[[{"header":{"parameterUnit":"m.s-1","parameterCategory":1,"la1":30.2991,"la2":30.254,"lo1":-89.0895,"lo2":-89.0444,"dy":0.0017,"dx":0.0017,"nx":28,"ny":28,"refTime":"2026-01-09T09:00:00:Z","depth":0,"parameterNumber":2,"parameterNumberName":"U-component_of_WINDS"},"data":[0,0,0,0,0,0,0,0,0,0,0,0,0,0,0,0,0,0,0,0,0,0,0,0,0,0,0,0,0,0,0,0,0,0,0,0,0,0,0,0,0,0,0,0,0,0,0,0,0,0,0,0,0,0,0,0,0,0,0.6478,0.6478,0,0.6497,0.6498,0.6498,0.6496,0.6496,0.6496,0.6495,0.6517,0.6517,0.6518,0,0,0,0,0,0,0,0,0,0,0,0,0,0.6441,0.6441,0.6478,0.6478,0.6478,0.6497,0.6498,0.6498,0.6496,0.6496,0.6496,0.6495,0.6516,0.6517,0.6518,0,0,0,0,0,0,0,0,0,0,0,0,0,0.6458,0.6441,0.6478,0.648,0.648,0.6497,0.6498,0.6498,0.6496,0.6496,0.6496,0.6495,0.6516,0.6517,0.6519,0.6535,0,0,0.6522,0.6523,0,0,0,0,0,0,0,0,0.6457,0.6459,0.6479,0.648,0.648,0.6494,0.6492,0.651,0.6497,0.649,0.6495,0.6495,0.651,0.6511,0.6516,0.6536,0.6537,0.6522,0.6523,0.6524,0.6524,0,0,0,0,0,0,0,0.6456,0.6459,0.6486,0.648,0.648,0.648,0.6482,0.6496,0.6502,0.6491,0.6491,0.6493,0.651,0.6515,0.6516,0.6537,0.6522,0.6524,0.6524,0.6525,0.6572,0.6572,0,0,0,0,0,0,0.6454,0.6458,0.6485,0.6486,0.6467,0.6481,0.6483,0.649,0.6502,0.6503,0.6493,0.6493,0.6513,0.6515,0.6517,0.6537,0.6524,0.6525,0.6526,0.6571,0.6572,0.6573,0,0,0,0,0,0,0.6453,0.6456,0.6484,0.6472,0.6475,0.6482,0.649,0.6491,0.6496,0.6504,0.6505,0.6497,0.6513,0.6515,0.6531,0.6538,0.6526,0.6527,0.6571,0.6572,0.6572,0.6578,0,0,0,0,0,0,0.6452,0.6456,0.6462,0.6472,0.6476,0.6497,0.649,0.6491,0.6498,0.6497,0.6508,0.6509,0.6512,0.6529,0.6532,0.654,0.6528,0.657,0.6571,0.6572,0.6577,0.6579,0.658,0,0,0,0,0,0.6451,0.6463,0.6463,0.6466,0.6484,0.6497,0.65,0.6503,0.6498,0.6505,0.651,0.6509,0.6537,0.653,0.6534,0.6542,0.657,0.6571,0.6572,0.6576,0.6578,0.658,0,0,0,0,0,0,0.6455,0.6465,0.6464,0.648,0.6488,0.6497,0.6505,0.6505,0.6514,0.6514,0.6517,0.652,0.6535,0.654,0.6533,0.6559,0.6553,0.6555,0.6555,0.6557,0.6558,0.6557,0.6529,0,0,0,0,0,0.6458,0.6467,0.6476,0.6489,0.6493,0.6498,0.6504,0.6506,0.6514,0.6518,0.6524,0.6533,0.6543,0.655,0.6561,0.6578,0.658,0.6585,0.6587,0.6588,0.659,0.6599,0.6601,0.6576,0.6576,0.6576,0,0,0.6463,0.647,0.6476,0.649,0.6496,0.6507,0.6501,0.6512,0.652,0.652,0.6534,0.6539,0.6549,0.6565,0.6573,0.657,0.6597,0.6589,0.659,0.6591,0.66,0.6603,0.6605,0.6577,0.6577,0.6577,0,0,0.6479,0.6485,0.6497,0.6503,0.6513,0.6516,0.6519,0.6528,0.6531,0.6546,0.6545,0.6555,0.6573,0.658,0.6586,0.6604,0.6604,0.6608,0.6616,0.6625,0.6627,0.6629,0.6635,0.6638,0.6609,0.6609,0.6609,0,0.6486,0.6501,0.6503,0.6515,0.6521,0.652,0.6532,0.6538,0.6551,0.6555,0.6552,0.6574,0.6581,0.6598,0.6603,0.6608,0.6611,0.6607,0.6626,0.6628,0.663,0.6636,0.6639,0.661,0.6609,0.6609,0.6609,0,0.6508,0.6519,0.6527,0.6539,0.6546,0.6558,0.6562,0.6569,0.657,0.6574,0.6588,0.6596,0.6608,0.6612,0.6613,0.663,0.6628,0.6625,0.662,0.6633,0.6639,0.6641,0.661,0.661,0.661,0.661,0,0,0.6528,0.654,0.6543,0.6548,0.6558,0.6567,0.6578,0.6589,0.6595,0.6604,0.6614,0.6629,0.6627,0.6633,0.6635,0.6643,0.6657,0.664,0.664,0.6643,0.6676,0.6678,0.6681,0.6657,0.6657,0.6657,0.6675,0,0.6545,0.6565,0.6567,0.6586,0.6596,0.6595,0.6605,0.6612,0.6616,0.6626,0.663,0.6641,0.6637,0.6641,0.6648,0.6654,0.6664,0.6652,0.6666,0.6667,0.6664,0.6684,0.6686,0.6703,0.6678,0.6678,0.6678,0,0.6567,0.6576,0.6595,0.6604,0.6608,0.6617,0.6627,0.6636,0.6645,0.6647,0.6654,0.6655,0.6667,0.666,0.6677,0.667,0.6675,0.6679,0.6679,0.6681,0.6674,0.6687,0.6708,0.6711,0.6682,0.6682,0.6682,0,0.658,0.6596,0.661,0.6614,0.6625,0.6631,0.6636,0.6644,0.665,0.6659,0.6663,0.6674,0.668,0.6688,0.6691,0.6686,0.6708,0.6702,0.6711,0.6711,0.6716,0.6715,0.6739,0.6719,0.6719,0.6719,0.6719,0,0.6599,0.6611,0.6616,0.6624,0.6637,0.664,0.6653,0.6657,0.6664,0.6674,0.6674,0.6683,0.6687,0.6696,0.6699,0.6713,0.6716,0.6718,0.6719,0.6718,0.6718,0.6722,0.6721,0.672,0.672,0.6719,0.6719,0,0.6615,0.6619,0.6634,0.6642,0.6645,0.6654,0.6661,0.6669,0.6673,0.6685,0.6688,0.6694,0.6705,0.6709,0.6723,0.6725,0.6741,0.6741,0.6738,0.6738,0.6747,0.6746,0.6774,0.6778,0.6755,0.6756,0.6756,0,0.6627,0.6636,0.6645,0.6652,0.6656,0.6666,0.6673,0.6676,0.6682,0.6692,0.6699,0.671,0.672,0.6737,0.6743,0.6754,0.6754,0.6763,0.6755,0.6754,0.6754,0.6753,0.6754,0.6764,0.6765,0.6765,0.6765,0,0.6648,0.6649,0.6659,0.6668,0.6676,0.6684,0.6692,0.6697,0.6701,0.6708,0.672,0.6727,0.674,0.6751,0.6762,0.6767,0.6767,0.6767,0.677,0.6769,0.6767,0.6769,0.6742,0.6767,0.6766,0.6766,0.6766,0.6766,0.6663,0.6671,0.6678,0.6688,0.6694,0.6702,0.671,0.6714,0.6724,0.6735,0.6736,0.6748,0.6756,0.677,0.6776,0.6786,0.6783,0.6787,0.6788,0.6789,0.679,0.6766,0.6788,0.6787,0.6787,0.6787,0.6787,0,0.6684,0.6688,0.6698,0.6708,0.6716,0.6715,0.6723,0.673,0.6741,0.6748,0.6757,0.677,0.678,0.6787,0.6797,0.6804,0.6804,0.6807,0.6806,0.6807,0.6791,0.6788,0.6806,0.6806,0.6806,0.6806,0.6806,0.6806,0.6695,0.6709,0.6711,0.6727,0.6732,0.6744,0.6749,0.6755,0.6761,0.6776,0.6784,0.6788,0.6795,0.6806,0.6816,0.6818,0.6822,0.6825,0.6826,0.6811,0.6809,0.6807,0.6804,0.6825,0.6825,0.6842,0.6842,0.6842]},{"header":{"parameterUnit":"m.s-1","parameterCategory":1,"la1":30.2991,"la2":30.254,"lo1":-89.0895,"lo2":-89.0444,"dy":0.0017,"dx":0.0017,"nx":28,"ny":28,"refTime":"2026-01-09T09:00:00:Z","depth":0,"parameterNumber":3,"parameterNumberName":"V-component_of_WINDS"},"data":[0,0,0,0,0,0,0,0,0,0,0,0,0,0,0,0,0,0,0,0,0,0,0,0,0,0,0,0,0,0,0,0,0,0,0,0,0,0,0,0,0,0,0,0,0,0,0,0,0,0,0,0,0,0,0,0,0,0,3.6368,3.6369,0,3.6524,3.6526,3.6528,3.6565,3.6564,3.6563,3.6562,3.6727,3.6732,3.6738,0,0,0,0,0,0,0,0,0,0,0,0,0,3.6106,3.6111,3.6368,3.637,3.6372,3.6524,3.6526,3.6528,3.6566,3.6564,3.6563,3.6562,3.6726,3.6732,3.6738,0,0,0,0,0,0,0,0,0,0,0,0,0,3.6237,3.6112,3.6367,3.6408,3.6414,3.6523,3.6526,3.6529,3.6566,3.6564,3.6563,3.6561,3.6723,3.6731,3.6739,3.6821,0,0,3.6764,3.6767,0,0,0,0,0,0,0,0,3.623,3.6247,3.64,3.6406,3.6412,3.6524,3.6494,3.6627,3.6566,3.6508,3.6562,3.656,3.6661,3.6674,3.6707,3.6828,3.6835,3.6765,3.6769,3.6773,3.6775,0,0,0,0,0,0,0,3.6221,3.624,3.643,3.6403,3.641,3.6421,3.6438,3.652,3.6592,3.6513,3.6516,3.6534,3.6664,3.6699,3.6711,3.6838,3.6764,3.6771,3.6776,3.678,3.7037,3.7039,0,0,0,0,0,0,3.6204,3.6232,3.6425,3.6434,3.6315,3.6427,3.6446,3.6489,3.6591,3.6605,3.6535,3.6535,3.6686,3.6702,3.6717,3.6822,3.6773,3.678,3.6785,3.7035,3.7037,3.7039,0,0,0,0,0,0,3.6198,3.622,3.6418,3.6334,3.636,3.6433,3.6482,3.6493,3.6529,3.6608,3.6621,3.6558,3.6686,3.6706,3.6795,3.6828,3.6784,3.6791,3.7032,3.7035,3.7038,3.7029,0,0,0,0,0,0,3.619,3.6218,3.6248,3.6335,3.6365,3.6492,3.6484,3.6498,3.6542,3.6543,3.6632,3.6646,3.6686,3.6783,3.6803,3.6838,3.6798,3.703,3.7034,3.7037,3.7027,3.7031,3.7035,0,0,0,0,0,3.6181,3.624,3.625,3.6273,3.6404,3.6494,3.6511,3.6555,3.6544,3.6577,3.6628,3.6643,3.682,3.6791,3.6815,3.6853,3.7028,3.7033,3.7037,3.7025,3.703,3.7035,0,0,0,0,0,0,3.6157,3.6252,3.6264,3.6353,3.6415,3.65,3.6542,3.6559,3.6626,3.6625,3.6678,3.6698,3.6784,3.6827,3.6793,3.6938,3.6924,3.6934,3.6907,3.6913,3.6917,3.6906,3.6804,0,0,0,0,0,3.6162,3.6225,3.6305,3.6376,3.6406,3.6468,3.6509,3.6538,3.6605,3.6632,3.6689,3.6755,3.6826,3.6871,3.6941,3.7032,3.7054,3.707,3.7074,3.7077,3.7086,3.714,3.7149,3.7054,3.7054,3.7054,0,0,3.6173,3.6233,3.627,3.6373,3.6424,3.6491,3.649,3.656,3.6611,3.6643,3.6731,3.6775,3.6852,3.6943,3.6986,3.6982,3.7116,3.7083,3.7085,3.7092,3.7146,3.7155,3.7163,3.7057,3.7057,3.7056,0,0,3.6228,3.6278,3.6344,3.6395,3.6473,3.6514,3.6529,3.6612,3.6643,3.6731,3.6757,3.6819,3.6939,3.6994,3.7037,3.7114,3.7131,3.7135,3.7158,3.721,3.7218,3.7225,3.7255,3.7264,3.7142,3.7142,3.7142,0,3.6233,3.6332,3.6376,3.6445,3.6491,3.6521,3.6589,3.6637,3.6734,3.6766,3.6758,3.6911,3.6965,3.7071,3.709,3.7123,3.7145,3.7126,3.7213,3.722,3.7227,3.7257,3.7268,3.7142,3.7142,3.7142,3.7142,0,3.6336,3.6405,3.6448,3.654,3.659,3.6658,3.6714,3.676,3.6784,3.6827,3.6918,3.6983,3.7068,3.7095,3.7119,3.7205,3.72,3.7202,3.719,3.7236,3.7264,3.7276,3.7142,3.7142,3.7142,3.7142,0,0,3.6381,3.6496,3.6512,3.6555,3.6642,3.6697,3.6768,3.6849,3.6889,3.6954,3.7017,3.7118,3.7121,3.717,3.7201,3.7247,3.7307,3.7244,3.7247,3.7256,3.7409,3.7408,3.742,3.7318,3.732,3.7322,3.7403,0,3.6449,3.6574,3.6616,3.6721,3.6786,3.6817,3.6878,3.694,3.6982,3.7045,3.7091,3.7164,3.716,3.7191,3.7237,3.7289,3.7339,3.7284,3.7379,3.7382,3.7361,3.7435,3.7434,3.7507,3.7414,3.7416,3.7417,0,3.6545,3.6611,3.6722,3.6804,3.6833,3.6887,3.6966,3.7025,3.7097,3.7124,3.7179,3.7207,3.7284,3.7266,3.7374,3.7336,3.7378,3.7409,3.7413,3.7426,3.7404,3.7452,3.7531,3.7543,3.7435,3.7433,3.7432,0,3.657,3.6687,3.677,3.6805,3.6901,3.6939,3.6981,3.7051,3.7098,3.7167,3.7198,3.7276,3.7319,3.738,3.7429,3.741,3.7534,3.7519,3.7562,3.7561,3.7588,3.7586,3.7678,3.761,3.761,3.761,3.761,0,3.6643,3.671,3.6782,3.6833,3.6911,3.6958,3.7034,3.7078,3.714,3.7202,3.7233,3.729,3.735,3.7416,3.7455,3.7541,3.756,3.7586,3.7596,3.7585,3.7582,3.7614,3.7612,3.7613,3.7612,3.7612,3.7611,0,3.6685,3.6735,3.6827,3.6911,3.6933,3.6987,3.7059,3.7111,3.7154,3.7232,3.7253,3.7321,3.74,3.7454,3.7557,3.7583,3.7677,3.7685,3.7653,3.7658,3.7699,3.7695,3.7817,3.7837,3.7753,3.7753,3.7754,0,3.6729,3.6782,3.687,3.6913,3.6955,3.7024,3.7071,3.7121,3.717,3.7256,3.7298,3.7379,3.7447,3.7573,3.7633,3.7712,3.7724,3.7761,3.7736,3.7724,3.7728,3.7725,3.7732,3.7766,3.7767,3.7767,3.7768,0,3.6803,3.6825,3.6892,3.6968,3.7024,3.7087,3.715,3.7183,3.7244,3.7298,3.7379,3.7432,3.7536,3.7618,3.7702,3.7748,3.777,3.7774,3.7789,3.778,3.776,3.7774,3.7666,3.7772,3.7772,3.7771,3.7771,3.7771,3.6849,3.6898,3.6969,3.7043,3.7095,3.7154,3.7207,3.7256,3.7324,3.7412,3.7437,3.7522,3.7595,3.7711,3.7758,3.7827,3.7824,3.7844,3.785,3.7855,3.7857,3.7746,3.7842,3.7842,3.7842,3.7842,3.7842,0,3.6927,3.6974,3.7041,3.7128,3.7187,3.7199,3.727,3.7319,3.7393,3.7458,3.7524,3.7619,3.7698,3.7764,3.7847,3.789,3.7902,3.791,3.7909,3.792,3.7853,3.7833,3.7899,3.7899,3.7899,3.7899,3.7899,3.7899,3.6975,3.7059,3.709,3.7202,3.7249,3.7331,3.7371,3.7426,3.7478,3.7582,3.7648,3.7689,3.7756,3.7844,3.7918,3.7936,3.7966,3.7973,3.7993,3.793,3.7924,3.7918,3.79,3.7979,3.7979,3.8055,3.8055,3.8056]}]]